SCP
0 0 -0 -0 0 -0 0 0 1 0 2 1 1 1 0 0 0 0 0 0 0 0 0 0 0 0 0 0 0 0 0 0 0 0 0 0 0 0 0 0 0 0 0
-0 0 -0 -0 0 0 0 0 1 0 1 1 1 1 1 1 0 0 0 0 0 0 0 0 0 0 0 0 0 0 0 0 0 0 0 0 0 0 0 0 0 0 0
0 0 0 -0 0 0 0 0 0 0 1 1 1 1 1 1 1 1 1 0 0 0 0 0 0 0 0 0 0 0 0 0 0 0 0 0 0 0 0 0 0 0 0
0 0 0 0 -0 0 0 -0 -0 0 1 1 1 1 1 1 1 1 0 0 0 0 0 0 0 0 0 0 0 0 0 0 0 0 0 0 0 0 0 0 0 0 0
0 0 0 0 0 0 0 0 0 0 1 1 1 1 1 1 1 1 0 0 0 0 0 0 0 0 0 0 0 0 0 0 0 0 0 0 0 0 0 0 0 0 0
0 0 0 0 0 0 0 0 0 0 1 0 0 1 1 1 1 1 1 0 0 0 0 0 0 0 0 0 0 0 0 0 0 0 0 0 0 0 0 0 0 0 0
0 0 0 0 1 0 0 -0 0 0 0 0 1 0 0 1 1 1 1 1 0 0 0 0 0 0 0 0 0 0 0 -0 0 -0 0 0 0 0 0 0 0 0 0
0 0 0 1 0 0 0 0 0 0 0 0 0 0 0 0 0 0 1 1 1 1 0 0 0 0 0 0 0 0 0 -0 -0 0 0 0 0 0 0 0 0 0 0
0 0 0 0 0 0 0 0 0 0 0 0 0 0 0 0 0 0 0 0 0 0 0 0 0 0 0 0 0 0 -0 0 0 0 0 0 0 0 0 0 0 0 0
0 0 0 0 0 0 0 0 0 0 0 0 -0 0 -0 0 0 0 0 0 0 0 0 0 0 0 0 0 0 0 0 0 0 0 0 0 0 0 0 0 0 0 0
0 0 0 0 0 0 0 0 0 0 0 0 0 0 -0 -0 -0 0 0 0 0 0 0 0 0 0 0 0 0 0 0 0 0 0 0 0 0 0 0 0 0 0 0
0 0 0 0 0 0 0 0 0 0 0 0 0 -0 -0 -0 -0 -0 -0 0 -0 0 0 0 0 0 0 0 0 0 0 0 0 0 0 0 0 0 0 0 0 0 0
0 0 0 0 0 0 0 0 0 0 0 -0 -0 -0 -0 -0 -0 -0 -0 -0 0 0 0 0 0 0 0 0 0 0 0 0 0 0 0 0 0 0 0 0 0 0 0
0 0 0 0 0 0 0 0 0 0 0 0 0 0 0 0 0 0 0 0 0 0 0 0 0 0 0 0 0 0 0 0 0 0 0 0 0 0 0 0 0 0 0
0 0 0 0 0 0 0 0 0 0 0 0 0 0 0 0 0 0 0 0 0 0 0 0 0 0 0 0 0 0 0 0 0 0 0 0 0 0 0 0 0 0 0
0 0 0 0 0 0 0 0 0 0 0 0 0 0 0 0 0 0 0 0 0 0 0 0 0 0 0 0 0 0 0 0 0 0 0 0 0 0 0 0 0 0 0
-0 -0 0 0 0 0 0 0 0 0 0 0 0 0 0 0 0 0 0 0 0 0 0 0 0 0 0 0 0 0 0 0 0 0 0 0 0 0 0 0 0 0 0
-0 -0 0 0 0 0 0 0 0 0 0 0 0 0 0 0 0 0 0 0 0 0 0 0 0 0 0 0 0 0 0 0 0 0 0 0 0 0 0 0 0 0 0
-0 0 0 0 0 0 0 0 0 0 0 0 0 0 0 0 0 0 0 0 0 0 0 0 0 0 0 0 0 0 0 0 0 0 0 0 0 0 0 0 0 0 0
0 0 0 0 0 0 0 0 0 0 0 0 0 0 0 0 0 0 0 0 0 0 0 0 0 0 0 0 0 0 0 0 0 0 0 0 0 0 0 0 0 0 0
0 0 0 0 0 0 0 0 0 0 0 0 0 0 0 0 0 0 0 0 0 0 0 0 0 0 0 0 0 0 0 0 0 0 0 0 0 0 0 0 0 0 0
0 0 0 0 0 0 0 0 0 0 0 0 0 0 0 0 0 0 0 0 0 0 0 0 0 0 0 0 0 0 0 0 0 0 0 0 0 0 0 0 0 0 0
0 0 0 0 0 0 0 0 0 0 0 0 0 0 0 0 0 0 0 0 0 0 0 0 0 0 0 0 0 0 0 0 0 0 0 0 0 0 0 0 0 0 0
0 0 0 0 0 0 0 0 0 0 0 0 0 0 0 0 0 0 0 0 0 0 0 0 0 0 0 0 0 0 0 0 0 0 0 0 0 0 0 0 0 0 0
0 0 0 0 0 0 0 0 0 0 0 0 0 0 0 0 0 0 0 0 0 0 0 0 0 0 0 0 0 0 0 0 0 0 0 0 0 0 0 0 0 0 0
0 0 0 0 0 0 0 0 0 0 0 0 0 0 0 0 0 0 0 0 0 0 0 0 0 0 0 0 0 0 0 0 0 0 0 0 0 0 0 0 0 0 0
Wind_Speed_500mb
34 33 33 41 49 44 67 64 93 88 87 71 76 65 63 56 54 56 53 58 50 53 49 36 32 32 26 23 24 23 21 20 15 14 15 13 14 15 17 19 20 21 25
38 33 34 31 43 44 59 35 87 88 91 75 77 70 64 57 57 58 56 59 54 56 52 38 36 33 28 27 26 24 23 21 19 11 13 6 14 15 16 14 21 23 28
43 34 22 26 45 59 74 60 58 87 85 81 80 74 63 59 57 53 53 54 54 51 49 39 38 35 33 30 29 29 27 21 20 27 10 3 6 5 17 16 20 20 23
36 31 17 30 47 66 54 75 101 78 92 86 77 74 71 70 64 65 62 58 52 51 49 45 38 36 38 36 32 30 25 29 36 21 20 20 23 9 6 18 17 23 28
32 27 27 40 57 44 73 61 102 104 93 93 82 77 71 69 62 59 56 60 57 51 52 48 42 41 37 32 29 28 30 29 29 28 28 26 21 19 20 19 27 15 22
19 28 33 41 57 47 51 69 67 78 94 74 71 72 71 61 60 55 50 52 61 57 53 51 47 43 36 31 31 30 24 29 36 40 32 29 21 19 17 18 23 27 30
3 17 28 38 56 56 38 56 17 67 55 61 62 68 63 64 53 58 56 58 61 60 57 52 45 37 35 28 29 13 45 41 44 42 34 31 24 20 20 18 20 26 30
27 4 22 39 56 57 33 49 48 38 36 51 42 64 60 52 56 47 55 57 56 50 46 37 30 29 20 13 17 39 50 39 37 39 30 24 27 31 27 28 24 30 29
40 13 20 41 58 62 51 50 45 38 26 30 14 31 24 18 25 45 51 55 55 46 33 30 26 22 19 25 41 52 40 35 30 29 30 31 32 32 31 37 32 30 25
43 31 23 46 57 59 51 54 47 42 46 40 36 40 23 30 51 49 50 59 60 50 33 26 30 30 25 50 58 45 39 40 31 27 30 34 33 33 34 31 31 31 32
52 37 27 44 55 49 43 39 37 41 58 52 53 55 55 53 59 51 54 86 68 69 56 53 55 47 52 57 50 41 37 35 30 33 32 32 32 31 31 31 30 29 29
47 43 39 47 53 55 46 37 28 29 24 27 40 45 49 57 49 53 74 61 76 81 82 73 60 66 66 55 49 45 38 34 33 32 31 33 33 31 30 27 25 29 29
52 51 44 44 44 44 42 38 35 36 39 37 47 50 47 48 49 53 67 65 59 64 66 67 63 57 60 56 51 43 39 38 36 33 33 34 30 30 28 28 29 31 33
52 57 51 44 36 34 32 38 42 36 36 42 47 45 51 51 52 59 66 62 65 68 59 58 54 54 51 50 45 44 42 38 34 33 31 29 29 30 30 32 35 38 38
55 41 43 37 30 31 23 26 37 40 40 42 42 42 44 43 44 49 53 57 61 63 55 54 50 48 49 48 46 43 38 34 31 29 28 29 30 32 34 38 41 44 41
39 34 33 16 22 17 19 18 21 31 37 44 46 46 45 46 45 49 52 55 53 54 54 51 46 50 52 49 44 39 35 31 30 29 31 32 33 37 39 42 40 39 37
33 33 32 26 19 15 13 14 17 21 33 39 45 48 47 47 48 51 50 47 47 49 50 46 46 45 44 40 37 34 31 30 29 29 31 34 37 38 40 39 38 37 38
29 28 24 18 18 20 19 14 15 16 17 22 32 40 41 42 42 43 46 47 48 48 48 47 46 44 41 37 35 33 29 27 25 26 30 33 35 36 36 36 35 34 36
29 26 23 20 19 17 16 15 12 12 13 16 19 25 29 33 36 37 38 40 42 42 41 42 41 40 38 37 34 30 24 20 20 26 28 29 30 33 34 34 33 33 31
32 30 24 21 19 15 14 10 8 6 6 11 16 19 21 24 27 32 34 36 37 36 40 41 41 40 38 37 33 28 23 19 18 20 21 22 26 31 31 31 30 28 30
34 28 25 21 21 19 17 14 8 5 3 7 12 16 20 23 27 30 32 35 37 41 42 42 42 41 39 38 35 30 25 21 18 15 18 23 24 24 23 24 26 30 31
32 32 31 25 19 14 11 11 12 10 3 1 4 8 14 20 25 27 30 33 34 39 40 41 43 42 41 41 40 36 33 29 24 23 23 24 28 29 27 31 27 27 29
26 26 26 28 23 16 12 11 10 8 6 4 2 7 12 14 17 20 27 33 37 42 44 47 47 46 46 45 43 41 36 36 33 32 30 26 27 32 32 31 34 29 27
20 20 21 24 25 24 21 17 12 11 9 13 16 10 12 17 21 25 28 31 34 38 39 45 44 44 44 44 43 39 38 39 38 33 31 30 34 34 31 34 35 32 26
11 14 16 18 19 19 19 18 16 13 9 5 8 16 16 22 22 23 29 33 36 39 41 43 41 43 45 40 38 38 38 37 34 36 34 34 34 34 31 33 34 33 31
9 9 9 11 13 13 16 18 18 13 10 10 11 11 14 17 21 28 33 37 38 36 38 42 42 41 45 43 41 40 40 37 37 38 38 37 27 29 31 31 33 35 33
Wind_Direction_500mb
240 223 235 260 268 241 232 190 182 187 191 191 182 180 172 170 176 177 176 177 177 180 178 175 178 183 189 192 203 201 205 211 225 242 264 270 253 259 271 271 267 251 260
229 227 223 258 239 212 225 204 184 193 192 191 192 191 185 183 181 181 183 185 183 188 182 181 183 184 188 194 197 204 209 219 230 223 238 235 267 276 267 276 289 264 262
220 226 226 248 214 205 193 192 207 197 196 192 186 189 182 180 183 184 183 189 186 188 186 184 185 194 201 203 205 213 218 228 237 223 191 264 270 280 275 287 293 277 290
222 235 238 233 195 201 191 229 218 205 202 195 191 188 185 183 187 189 192 190 188 192 190 193 195 201 204 207 211 221 231 229 231 247 238 246 265 269 279 308 291 304 292
222 234 235 214 195 205 206 226 207 215 190 197 195 193 194 197 197 194 194 198 197 200 197 199 198 201 206 213 218 222 236 245 249 260 264 272 266 263 276 274 289 290 289
247 235 222 202 187 191 201 193 209 216 195 191 197 197 196 195 194 189 188 192 198 193 195 199 203 207 208 212 219 217 223 252 252 267 254 260 274 281 272 286 293 286 281
155 191 201 184 181 188 199 228 233 178 196 204 201 204 195 196 195 199 199 200 195 194 198 200 205 207 211 206 195 224 251 274 247 255 250 266 259 254 263 267 278 281 289
32 32 190 170 179 186 179 214 251 257 168 160 166 196 196 198 201 195 202 206 202 203 192 172 183 201 189 202 241 231 249 254 237 244 249 249 235 247 263 279 273 279 286
28 60 161 168 180 188 162 195 212 216 203 237 241 237 210 213 197 210 194 198 200 174 179 194 193 204 220 227 224 237 239 235 229 226 233 241 247 265 267 275 269 260 277
29 58 145 161 162 170 172 185 203 206 201 218 235 225 191 220 224 242 237 202 205 204 216 221 212 227 240 231 243 220 217 223 227 231 239 249 259 265 270 273 271 267 256
38 44 84 139 155 167 168 167 201 209 203 201 201 195 203 218 203 226 229 213 205 210 231 262 253 253 230 234 211 214 217 226 231 238 245 256 262 265 268 270 271 272 266
37 47 66 100 137 145 143 142 177 186 161 168 186 192 203 216 215 215 213 221 223 228 229 231 222 225 231 207 208 214 220 227 233 238 245 251 255 257 261 266 270 277 278
46 50 56 87 117 146 151 161 165 161 163 181 186 187 189 187 197 204 201 198 185 192 204 218 219 197 194 200 207 212 216 221 228 236 240 245 247 253 266 272 277 280 284
38 44 46 65 91 122 145 166 165 169 181 190 195 193 189 193 191 190 192 194 204 215 200 186 187 192 196 204 211 213 217 221 230 236 239 245 253 263 270 275 278 283 289
40 40 37 34 65 83 108 142 156 168 171 182 188 193 199 200 199 202 204 200 191 185 185 186 193 199 204 210 212 216 221 227 231 234 242 251 259 265 273 280 283 288 288
49 52 55 38 28 50 94 112 148 165 176 185 185 187 191 195 196 194 193 189 187 188 191 195 200 206 209 210 211 217 223 226 232 240 249 258 264 270 275 277 280 282 287
35 36 46 49 66 86 113 138 156 163 182 190 191 188 190 192 192 191 193 192 190 191 198 206 211 209 209 211 214 216 219 227 236 246 255 263 270 274 277 278 279 282 286
34 31 38 63 68 71 87 112 140 159 171 179 185 187 190 194 193 191 192 192 198 204 208 207 205 204 207 208 209 213 222 232 244 258 270 274 277 276 275 277 277 282 281
29 34 40 48 58 69 74 79 106 142 164 181 182 187 190 191 194 201 203 203 207 206 207 206 206 207 205 203 207 213 222 238 266 279 281 285 282 280 279 279 276 278 277
37 38 47 67 75 76 79 81 99 121 162 181 192 195 200 204 206 209 208 208 208 210 213 213 211 208 206 204 208 211 221 241 267 281 289 291 296 295 290 284 280 277 278
44 51 57 70 80 89 96 107 117 117 166 213 215 216 214 214 213 217 216 217 217 217 217 216 215 212 210 206 208 213 226 238 248 273 293 296 300 312 321 300 288 283 283
41 43 49 57 73 85 85 80 83 75 58 307 237 227 222 217 219 220 224 224 220 218 214 214 216 216 216 217 215 219 228 233 243 251 259 278 286 286 300 303 296 285 284
46 44 45 51 53 48 40 38 26 7 8 351 312 256 258 257 250 230 221 220 219 220 218 218 221 222 221 222 223 228 231 240 249 260 263 274 291 288 284 286 287 282 277
34 42 45 46 45 43 44 43 29 6 338 336 312 294 274 256 246 244 243 233 231 227 228 230 226 228 227 227 230 236 240 243 247 248 258 279 287 284 278 283 283 270 275
31 39 38 37 35 30 27 27 22 15 5 346 305 293 282 274 265 259 257 251 246 245 243 246 243 238 241 240 243 245 244 246 245 244 254 268 279 278 275 274 275 274 267
349 0 13 7 4 2 0 354 352 343 319 298 287 273 267 269 267 272 273 273 265 262 259 256 255 249 242 237 236 235 237 238 241 245 253 257 263 279 276 274 274 266 261
Wind_Speed_850mb
34 33 33 41 49 44 67 64 93 88 87 71 76 65 63 56 54 56 53 58 50 53 49 36 32 32 26 23 24 23 21 20 15 14 15 13 14 15 17 19 20 21 25
38 33 34 31 43 44 59 35 87 88 91 75 77 70 64 57 57 58 56 59 54 56 52 38 36 33 28 27 26 24 23 21 19 11 13 6 14 15 16 14 21 23 28
43 34 22 26 45 59 74 60 58 87 85 81 80 74 63 59 57 53 53 54 54 51 49 39 38 35 33 30 29 29 27 21 20 27 10 3 6 5 17 16 20 20 23
36 31 17 30 47 66 54 75 101 78 92 86 77 74 71 70 64 65 62 58 52 51 49 45 38 36 38 36 32 30 25 29 36 21 20 20 23 9 6 18 17 23 28
32 27 27 40 57 44 73 61 102 104 93 93 82 77 71 69 62 59 56 60 57 51 52 48 42 41 37 32 29 28 30 29 29 28 28 26 21 19 20 19 27 15 22
19 28 33 41 57 47 51 69 67 78 94 74 71 72 71 61 60 55 50 52 61 57 53 51 47 43 36 31 31 30 24 29 36 40 32 29 21 19 17 18 23 27 30
3 17 28 38 56 56 38 56 17 67 55 61 62 68 63 64 53 58 56 58 61 60 57 52 45 37 35 28 29 13 45 41 44 42 34 31 24 20 20 18 20 26 30
27 4 22 39 56 57 33 49 48 38 36 51 42 64 60 52 56 47 55 57 56 50 46 37 30 29 20 13 17 39 50 39 37 39 30 24 27 31 27 28 24 30 29
40 13 20 41 58 62 51 50 45 38 26 30 14 31 24 18 25 45 51 55 55 46 33 30 26 22 19 25 41 52 40 35 30 29 30 31 32 32 31 37 32 30 25
43 31 23 46 57 59 51 54 47 42 46 40 36 40 23 30 51 49 50 59 60 50 33 26 30 30 25 50 58 45 39 40 31 27 30 34 33 33 34 31 31 31 32
52 37 27 44 55 49 43 39 37 41 58 52 53 55 55 53 59 51 54 86 68 69 56 53 55 47 52 57 50 41 37 35 30 33 32 32 32 31 31 31 30 29 29
47 43 39 47 53 55 46 37 28 29 24 27 40 45 49 57 49 53 74 61 76 81 82 73 60 66 66 55 49 45 38 34 33 32 31 33 33 31 30 27 25 29 29
52 51 44 44 44 44 42 38 35 36 39 37 47 50 47 48 49 53 67 65 59 64 66 67 63 57 60 56 51 43 39 38 36 33 33 34 30 30 28 28 29 31 33
52 57 51 44 36 34 32 38 42 36 36 42 47 45 51 51 52 59 66 62 65 68 59 58 54 54 51 50 45 44 42 38 34 33 31 29 29 30 30 32 35 38 38
55 41 43 37 30 31 23 26 37 40 40 42 42 42 44 43 44 49 53 57 61 63 55 54 50 48 49 48 46 43 38 34 31 29 28 29 30 32 34 38 41 44 41
39 34 33 16 22 17 19 18 21 31 37 44 46 46 45 46 45 49 52 55 53 54 54 51 46 50 52 49 44 39 35 31 30 29 31 32 33 37 39 42 40 39 37
33 33 32 26 19 15 13 14 17 21 33 39 45 48 47 47 48 51 50 47 47 49 50 46 46 45 44 40 37 34 31 30 29 29 31 34 37 38 40 39 38 37 38
29 28 24 18 18 20 19 14 15 16 17 22 32 40 41 42 42 43 46 47 48 48 48 47 46 44 41 37 35 33 29 27 25 26 30 33 35 36 36 36 35 34 36
29 26 23 20 19 17 16 15 12 12 13 16 19 25 29 33 36 37 38 40 42 42 41 42 41 40 38 37 34 30 24 20 20 26 28 29 30 33 34 34 33 33 31
32 30 24 21 19 15 14 10 8 6 6 11 16 19 21 24 27 32 34 36 37 36 40 41 41 40 38 37 33 28 23 19 18 20 21 22 26 31 31 31 30 28 30
34 28 25 21 21 19 17 14 8 5 3 7 12 16 20 23 27 30 32 35 37 41 42 42 42 41 39 38 35 30 25 21 18 15 18 23 24 24 23 24 26 30 31
32 32 31 25 19 14 11 11 12 10 3 1 4 8 14 20 25 27 30 33 34 39 40 41 43 42 41 41 40 36 33 29 24 23 23 24 28 29 27 31 27 27 29
26 26 26 28 23 16 12 11 10 8 6 4 2 7 12 14 17 20 27 33 37 42 44 47 47 46 46 45 43 41 36 36 33 32 30 26 27 32 32 31 34 29 27
20 20 21 24 25 24 21 17 12 11 9 13 16 10 12 17 21 25 28 31 34 38 39 45 44 44 44 44 43 39 38 39 38 33 31 30 34 34 31 34 35 32 26
11 14 16 18 19 19 19 18 16 13 9 5 8 16 16 22 22 23 29 33 36 39 41 43 41 43 45 40 38 38 38 37 34 36 34 34 34 34 31 33 34 33 31
9 9 9 11 13 13 16 18 18 13 10 10 11 11 14 17 21 28 33 37 38 36 38 42 42 41 45 43 41 40 40 37 37 38 38 37 27 29 31 31 33 35 33
Wind_Direction_850mb
240 223 235 260 268 241 232 190 182 187 191 191 182 180 172 170 176 177 176 177 177 180 178 175 178 183 189 192 203 201 205 211 225 242 264 270 253 259 271 271 267 251 260
229 227 223 258 239 212 225 204 184 193 192 191 192 191 185 183 181 181 183 185 183 188 182 181 183 184 188 194 197 204 209 219 230 223 238 235 267 276 267 276 289 264 262
220 226 226 248 214 205 193 192 207 197 196 192 186 189 182 180 183 184 183 189 186 188 186 184 185 194 201 203 205 213 218 228 237 223 191 264 270 280 275 287 293 277 290
222 235 238 233 195 201 191 229 218 205 202 195 191 188 185 183 187 189 192 190 188 192 190 193 195 201 204 207 211 221 231 229 231 247 238 246 265 269 279 308 291 304 292
222 234 235 214 195 205 206 226 207 215 190 197 195 193 194 197 197 194 194 198 197 200 197 199 198 201 206 213 218 222 236 245 249 260 264 272 266 263 276 274 289 290 289
247 235 222 202 187 191 201 193 209 216 195 191 197 197 196 195 194 189 188 192 198 193 195 199 203 207 208 212 219 217 223 252 252 267 254 260 274 281 272 286 293 286 281
155 191 201 184 181 188 199 228 233 178 196 204 201 204 195 196 195 199 199 200 195 194 198 200 205 207 211 206 195 224 251 274 247 255 250 266 259 254 263 267 278 281 289
32 32 190 170 179 186 179 214 251 257 168 160 166 196 196 198 201 195 202 206 202 203 192 172 183 201 189 202 241 231 249 254 237 244 249 249 235 247 263 279 273 279 286
28 60 161 168 180 188 162 195 212 216 203 237 241 237 210 213 197 210 194 198 200 174 179 194 193 204 220 227 224 237 239 235 229 226 233 241 247 265 267 275 269 260 277
29 58 145 161 162 170 172 185 203 206 201 218 235 225 191 220 224 242 237 202 205 204 216 221 212 227 240 231 243 220 217 223 227 231 239 249 259 265 270 273 271 267 256
38 44 84 139 155 167 168 167 201 209 203 201 201 195 203 218 203 226 229 213 205 210 231 262 253 253 230 234 211 214 217 226 231 238 245 256 262 265 268 270 271 272 266
37 47 66 100 137 145 143 142 177 186 161 168 186 192 203 216 215 215 213 221 223 228 229 231 222 225 231 207 208 214 220 227 233 238 245 251 255 257 261 266 270 277 278
46 50 56 87 117 146 151 161 165 161 163 181 186 187 189 187 197 204 201 198 185 192 204 218 219 197 194 200 207 212 216 221 228 236 240 245 247 253 266 272 277 280 284
38 44 46 65 91 122 145 166 165 169 181 190 195 193 189 193 191 190 192 194 204 215 200 186 187 192 196 204 211 213 217 221 230 236 239 245 253 263 270 275 278 283 289
40 40 37 34 65 83 108 142 156 168 171 182 188 193 199 200 199 202 204 200 191 185 185 186 193 199 204 210 212 216 221 227 231 234 242 251 259 265 273 280 283 288 288
49 52 55 38 28 50 94 112 148 165 176 185 185 187 191 195 196 194 193 189 187 188 191 195 200 206 209 210 211 217 223 226 232 240 249 258 264 270 275 277 280 282 287
35 36 46 49 66 86 113 138 156 163 182 190 191 188 190 192 192 191 193 192 190 191 198 206 211 209 209 211 214 216 219 227 236 246 255 263 270 274 277 278 279 282 286
34 31 38 63 68 71 87 112 140 159 171 179 185 187 190 194 193 191 192 192 198 204 208 207 205 204 207 208 209 213 222 232 244 258 270 274 277 276 275 277 277 282 281
29 34 40 48 58 69 74 79 106 142 164 181 182 187 190 191 194 201 203 203 207 206 207 206 206 207 205 203 207 213 222 238 266 279 281 285 282 280 279 279 276 278 277
37 38 47 67 75 76 79 81 99 121 162 181 192 195 200 204 206 209 208 208 208 210 213 213 211 208 206 204 208 211 221 241 267 281 289 291 296 295 290 284 280 277 278
44 51 57 70 80 89 96 107 117 117 166 213 215 216 214 214 213 217 216 217 217 217 217 216 215 212 210 206 208 213 226 238 248 273 293 296 300 312 321 300 288 283 283
41 43 49 57 73 85 85 80 83 75 58 307 237 227 222 217 219 220 224 224 220 218 214 214 216 216 216 217 215 219 228 233 243 251 259 278 286 286 300 303 296 285 284
46 44 45 51 53 48 40 38 26 7 8 351 312 256 258 257 250 230 221 220 219 220 218 218 221 222 221 222 223 228 231 240 249 260 263 274 291 288 284 286 287 282 277
34 42 45 46 45 43 44 43 29 6 338 336 312 294 274 256 246 244 243 233 231 227 228 230 226 228 227 227 230 236 240 243 247 248 258 279 287 284 278 283 283 270 275
31 39 38 37 35 30 27 27 22 15 5 346 305 293 282 274 265 259 257 251 246 245 243 246 243 238 241 240 243 245 244 246 245 244 254 268 279 278 275 274 275 274 267
349 0 13 7 4 2 0 354 352 343 319 298 287 273 267 269 267 272 273 273 265 262 259 256 255 249 242 237 236 235 237 238 241 245 253 257 263 279 276 274 274 266 261